Regional Weather Roundup
Issued by NWS

Home | Current Version | Previous Version | Text Only | Print | Product List | Glossary Off
Versions: 1 2 3 4 5 6 7 8 9 10 11 12 13 14 15 16 17 18 19 20 21 22 23 24 25 26 27 28 29 30 31 32 33 34 35 36 37 38 39 40 41 42 43 44 45 46 47 48 49 50

000
ASUS43 KIND 102109
RWRIN

WEATHER ROUNDUP FOR INDIANA
NATIONAL WEATHER SERVICE INDIANAPOLIS IN
400 PM EST SUN DEC 10 2017

NOTE: "FAIR" INDICATES FEW OR NO CLOUDS BELOW 12,000 FEET WITH NO
SIGNIFICANT WEATHER AND/OR OBSTRUCTIONS TO VISIBILITY.

* - STATION DOES NOT REPORT WEATHER SUCH AS PRECIPITATION OR FOG.

+ - STATION NOT QUALITY CONTROLLED BY THE NATIONAL WEATHER SERVICE.
    USE DATA WITH CAUTION...ESPECIALLY DEWPOINT AND RELATIVE
    HUMIDITY OBSERVATIONS.

INZ001>003-010>013-019-020-102200-
NORTHWEST INDIANA

CITY           SKY/WX    TMP DP  RH WIND       PRES   REMARKS
GARY /AIRPORT/ CLOUDY    36  21  55 W14       29.92R WCI  27
KNOX *+        MOSUNNY   36  25  64 W13       29.89R WCI  27
LA PORTE +     PTSUNNY   32  23  68 NW12G17   29.91R WCI  23
MICHIGAN CITY+ CLOUDY    32  23  69 NW10      29.93R WCI  24
MONTICELLO +   SUNNY     38  20  48 W14G23    29.90R WCI  30
RENSSELAER +   SUNNY     37  16  41 W14       29.91R WCI  29
VALPARAISO     CLOUDY    36  23  59 NW10      29.91R WCI  28

$$

LMZ046-743>745-102200-
SOUTHERN LAKE MICHIGAN

STATION/POSITION TIME  TEMP    WIND        PRES    WAVE
                       AIR SEA DIR/SP/G            HT
                 (UTC) (F)     (DEG/KT/KT) (MB)    (FT)
BURNS HARBOR     2040   33     310/ 11/ 16 1013.5R
MICHIGAN CITY    2040   33     280/ 18/ 20   N/A

$$

INZ004-005-014>016-021>024-102200-
NORTH CENTRAL INDIANA

CITY           SKY/WX    TMP DP  RH WIND       PRES   REMARKS
ELKHART        CLOUDY    30  21  69 W7        29.90R WCI  23
GOSHEN         CLOUDY    30  21  69 SW5       29.89R WCI  25
LOGANSPORT +   SUNNY     36  23  60 SW17      29.91R WCI  25
PERU/GRISSOM   MOSUNNY   36  23  59 W17       29.89S WCI  25
ROCHESTER +    MOSUNNY   37  25  60 W10       29.90R WCI  30
SOUTH BEND     CLOUDY    30  23  75 W7        29.91R WCI  23
WARSAW +       CLOUDY    32  21  64 SW5       29.89R WCI  27

$$

INZ006>009-017-018-025>027-102200-
NORTHEAST INDIANA

CITY           SKY/WX    TMP DP  RH WIND       PRES   REMARKS
AUBURN +       CLOUDY    32  19  59 SW6       29.91R WCI  26
FORT WAYNE     CLOUDY    32  23  69 SW13      29.91S WCI  22
HUNTINGTON +   CLOUDY    33  20  58 SW6       29.90S WCI  27
KENDALLVILLE + CLOUDY    30  21  69 W9        29.90R WCI  21

$$

INZ028-029-035-036-043>045-051>053-102200-
WEST CENTRAL INDIANA

CITY           SKY/WX    TMP DP  RH WIND       PRES   REMARKS
CRAWFORDSVL +  SUNNY     36  22  56 SW16      29.94R WCI  26
GREENCASTLE +  SUNNY     36  21  55 SW8       29.95R WCI  29
LAFAYETTE      SUNNY     39  22  50 SW15G23   29.91R WCI  31
TERRE HAUTE    SUNNY     41  22  46 SW15      29.97R

$$

INZ030>032-037>040-046>048-054>057-064-065-102200-
CENTRAL INDIANA

CITY           SKY/WX    TMP DP  RH WIND       PRES   REMARKS
COLUMBUS       SUNNY     37  16  41 SW14G20   29.97S WCI  29
FRANKFORT +    SUNNY     40  23  51 W22G28    29.93S WCI  30
GREENWOOD *+   SUNNY     41  23  49 SW10G18   29.95R
INDIANAPOLIS   MOSUNNY   38  21  50 SW24      29.95R WCI  27
-EAGLE CREEK   SUNNY     38  20  48 SW8       29.93R WCI  32
KOKOMO +       MOSUNNY   36  22  56 W21       29.91S WCI  25
MARION +       PTSUNNY   34  22  61 SW13      29.92S HAZE    WCI  25
MT COMFORT *+  SUNNY     36  25  64 SW14G20   29.94R WCI  27
SHELBYVILLE    SUNNY     37  17  44 SW16      29.94R WCI  28
ZIONSVILLE +   SUNNY     36  20  53 SW18      29.93R WCI  25

$$

INZ033-034-041-042-049-050-058-059-102200-
EAST CENTRAL INDIANA

CITY           SKY/WX    TMP DP  RH WIND       PRES   REMARKS
MUNCIE         SUNNY     35  19  52 SW10G22   29.92R WCI  27
RICHMOND +     SUNNY     32  21  64 SW16      29.94R WCI  21

$$

INZ060-061-067>069-081>083-085>088-102200-
SOUTHWEST INDIANA

CITY           SKY/WX    TMP DP  RH WIND       PRES   REMARKS
EVANSVILLE     MOSUNNY   45  25  45 SW16G23   30.02S
HUNTINGBURG +  MOSUNNY   42  24  49 SW16      30.02R
WASHINGTON +   SUNNY     41  22  46 SW12      29.99S

$$

INZ062-063-066-070>080-084-089>092-102200-
SOUTH CENTRAL AND SOUTHEAST INDIANA

CITY           SKY/WX    TMP DP  RH WIND       PRES   REMARKS
BLOOMINGTON    SUNNY     39  21  48 SW20G28   29.96R WCI  29
MADISON *+     SUNNY     37  19  48 S13       29.99F WCI  29
NORTH VERNON + SUNNY     36  18  48 S14       29.96F WCI  27
SEYMOUR +      SUNNY     41  19  42 SW16      29.98S

$$





USA.gov is the U.S. government's official web portal to all federal, state and local government web resources and services.